Wind_Speed
5 5 4 4 3 3 4 5 4 4 4 4 4 4 5 6 6 6 6 6 7 7 7 7 7 7 7 7 8 7 6 7 7 7 7 7 6 6 6 7 7 6 7 7 7 7 7 8 8
6 5 5 4 2 4 6 6 5 5 5 5 5 6 6 7 7 7 7 7 8 8 8 8 8 8 8 8 8 8 7 7 8 8 8 8 7 7 8 8 7 7 8 9 9 9 9 9 9
7 6 6 5 5 6 7 7 6 6 6 7 7 7 8 8 7 7 8 8 8 9 8 8 8 9 8 8 8 8 8 8 8 8 9 8 8 8 8 8 8 9 9 9 10 10 11 11 10
7 7 7 6 7 8 8 8 7 7 7 8 9 9 9 9 9 9 8 8 8 9 8 8 8 9 9 9 9 8 9 9 9 9 9 9 9 9 9 10 10 10 11 11 11 12 12 12 12
8 7 7 8 9 9 9 9 8 8 8 9 9 9 9 10 10 10 10 9 9 8 8 8 8 8 10 10 10 9 10 9 9 10 10 10 11 10 10 11 11 11 12 12 12 13 13 13 14
8 8 8 9 10 10 10 9 9 9 9 9 10 10 10 11 10 11 11 10 9 8 8 8 9 9 10 11 11 11 10 10 10 10 10 11 11 11 11 11 12 12 12 13 13 13 14 14 14
10 9 10 11 12 12 11 10 10 9 9 10 10 11 11 11 11 11 11 11 11 10 9 9 9 10 10 11 11 10 11 11 11 11 12 12 13 12 12 12 12 13 13 14 14 14 14 14 14
11 11 11 12 12 13 11 10 10 9 9 9 10 11 12 11 11 11 11 12 12 11 11 10 11 11 11 11 11 11 12 12 12 13 13 13 13 13 13 14 13 13 14 14 15 14 15 16 16
11 12 12 13 12 12 11 10 10 10 10 10 11 11 12 12 12 12 12 12 11 11 12 12 11 12 12 12 11 13 13 13 13 13 13 13 14 14 14 14 14 14 15 15 15 15 16 16 17
12 13 13 13 12 12 11 11 10 10 11 11 11 12 12 12 11 12 12 11 11 12 12 13 13 13 12 11 12 13 14 14 13 13 13 14 14 14 14 15 15 15 16 16 16 16 16 17 17
13 14 14 13 12 12 12 11 11 12 12 12 12 12 12 11 11 12 11 11 11 12 12 12 13 13 13 13 13 14 14 14 14 13 14 14 15 15 15 15 15 16 16 17 17 18 17 18 18
13 14 14 13 12 13 13 12 12 12 12 12 13 12 11 11 11 11 11 11 11 12 12 13 14 14 14 14 14 14 14 15 14 14 14 15 15 15 15 15 15 16 17 17 18 18 18 18 18
13 13 13 13 13 13 13 12 12 13 13 13 13 12 11 11 11 11 12 13 12 12 13 13 14 14 13 14 14 14 14 14 14 14 14 15 15 15 16 15 16 17 18 19 19 19 19 19 19
12 13 12 13 13 13 12 12 13 13 14 14 13 13 12 12 12 12 12 13 13 13 13 13 13 14 13 13 14 14 14 15 14 14 14 14 14 15 15 16 17 17 18 19 19 20 20 20 19
12 12 12 12 12 12 12 12 13 14 14 14 13 13 13 13 13 13 13 14 13 14 13 13 13 13 13 13 13 13 13 14 14 14 14 14 14 15 16 16 17 17 18 18 18 19 19 19 19
12 11 11 12 12 11 11 11 13 14 14 14 13 13 13 13 14 14 14 14 14 13 13 13 13 13 13 13 13 12 13 14 14 14 13 14 15 15 15 16 17 17 17 18 17 18 18 18 19
12 12 11 11 11 11 11 12 13 14 14 14 13 13 13 13 14 14 15 14 14 13 12 12 13 13 13 13 12 12 13 13 14 14 14 14 14 14 15 16 16 17 17 18 18 18 18 18 19
13 13 12 11 11 11 12 13 14 14 14 12 12 12 12 12 13 14 14 13 13 12 11 11 12 12 12 12 11 11 11 12 13 13 13 13 13 14 15 16 17 17 17 18 18 19 19 19 19
13 13 12 11 11 11 12 13 13 13 12 11 12 11 12 12 12 12 12 11 10 10 10 10 11 11 11 11 11 11 11 12 12 13 13 14 13 14 14 15 16 17 17 17 18 19 19 19 19
14 13 12 11 11 12 12 13 12 11 10 11 12 11 12 13 12 11 10 9 9 9 10 10 10 10 11 11 10 11 12 12 12 12 12 12 13 13 14 14 15 15 16 17 18 17 18 18 19
14 13 12 11 11 12 12 14 13 12 11 11 12 12 12 11 10 10 10 9 9 9 9 9 10 10 10 11 11 11 11 11 11 11 12 12 12 13 14 13 13 14 15 16 16 17 18 18 18
13 13 12 11 11 11 12 12 12 11 10 10 10 10 10 10 10 10 9 9 9 9 9 9 10 10 10 11 10 10 10 10 9 10 11 11 12 13 13 13 13 14 14 14 15 16 16 17 17
13 13 13 12 11 11 10 11 11 10 10 9 9 9 10 9 10 10 9 9 9 9 10 10 10 10 10 9 9 10 10 10 10 10 11 11 12 12 13 13 13 13 14 15 15 16 16 16 16
13 13 13 12 11 11 10 11 11 11 10 10 10 10 10 9 9 9 9 8 8 9 9 10 10 10 10 9 9 9 9 10 11 11 11 12 12 12 13 13 13 14 15 15 15 15 16 16 16
14 13 12 12 12 12 11 11 11 11 11 10 10 11 11 10 10 10 10 9 9 9 9 9 10 10 10 10 10 10 10 11 12 12 11 11 12 13 13 13 15 15 15 14 15 15 16 16 17
13 13 13 13 13 11 11 12 12 11 12 11 11 11 11 11 11 10 10 11 10 10 9 9 10 9 9 9 10 10 11 11 11 11 12 12 13 13 14 14 14 15 14 14 14 15 16 17 17
15 14 14 13 12 12 12 12 12 12 11 11 12 12 12 11 11 11 11 11 11 11 11 11 11 11 11 10 10 11 11 12 12 12 12 12 13 14 14 14 15 15 14 14 15 15 16 16 17
15 14 14 13 12 12 12 12 12 11 11 12 12 12 12 11 12 12 12 11 11 12 12 12 12 12 12 11 11 11 11 11 11 11 12 13 14 14 15 15 15 15 15 15 16 16 17 17 18
16 15 15 14 13 13 13 13 14 13 12 12 12 12 12 13 13 13 12 12 12 13 13 13 13 13 13 12 12 12 12 12 12 12 13 14 14 15 15 15 15 15 15 15 16 17 18 18 19
16 16 16 15 15 14 15 16 15 14 13 13 14 14 14 14 14 13 13 12 13 13 14 14 14 14 14 14 13 13 13 13 13 13 14 15 15 15 16 16 16 16 16 16 17 17 18 18 18
Wind_Direction
233 235 241 252 271 284 272 274 270 279 284 288 288 290 293 297 303 303 301 301 296 293 290 285 279 280 278 272 264 263 261 264 263 266 261 260 261 264 260 253 251 252 253 255 254 250 246 245 247
237 239 244 253 261 270 272 271 273 281 285 290 294 297 297 297 300 300 300 300 298 294 288 284 280 282 283 278 269 263 265 265 265 267 262 259 260 258 260 257 251 252 257 259 257 253 249 247 246
243 244 247 254 247 248 267 273 277 279 283 287 292 296 294 296 297 300 302 300 296 293 291 287 282 281 283 281 270 265 271 270 267 265 266 261 259 257 260 259 255 256 260 261 257 253 252 252 249
246 250 250 253 252 254 263 269 273 276 283 289 292 293 291 293 296 299 302 303 298 293 290 286 282 281 280 276 270 268 271 269 267 267 266 265 265 262 261 261 261 260 259 260 260 255 252 254 255
245 249 250 251 252 258 263 268 273 277 285 290 292 292 293 293 293 293 295 300 295 291 288 286 284 282 279 275 271 271 265 266 269 269 270 267 266 267 267 265 264 261 258 259 263 259 258 258 257
242 248 249 245 251 257 262 266 269 273 283 290 295 295 294 292 292 293 292 292 289 287 289 286 285 284 280 277 272 271 266 267 269 270 271 269 267 267 264 264 265 263 260 260 262 262 259 258 258
240 245 246 247 250 255 260 264 267 276 285 291 298 300 298 292 292 291 291 289 285 281 283 284 283 282 281 277 272 272 271 273 273 276 276 272 269 268 266 264 263 262 261 261 261 261 258 255 257
242 246 250 250 252 256 261 266 271 278 285 290 297 300 298 294 292 291 292 289 283 276 276 276 279 278 279 277 275 274 277 277 277 280 276 273 271 267 265 264 261 260 263 264 262 259 259 258 256
241 243 247 249 253 259 267 270 275 280 284 291 295 296 297 298 297 292 291 288 278 271 271 272 274 281 280 276 276 276 277 274 276 279 278 274 272 268 267 265 262 262 265 266 266 259 259 259 258
240 240 245 250 253 261 268 274 279 284 286 291 296 299 298 298 298 293 287 280 274 273 274 277 279 286 285 278 277 276 275 274 274 277 278 276 272 268 266 264 263 263 266 267 268 265 264 261 260
241 241 247 251 254 260 266 272 277 284 286 290 296 298 295 295 297 293 285 283 279 278 278 282 283 282 281 279 277 276 277 279 275 275 275 274 271 268 266 266 266 267 267 266 269 268 268 267 264
245 248 250 252 256 259 263 268 275 281 283 287 293 294 292 295 296 294 291 287 283 282 280 282 284 281 278 278 276 274 276 278 277 273 273 274 271 266 266 269 268 268 270 269 269 269 270 268 265
246 247 248 251 253 259 261 266 272 278 281 284 289 290 289 293 295 291 289 287 284 280 279 279 281 279 278 279 276 276 275 273 272 274 275 276 275 269 267 268 269 270 272 272 270 270 271 267 265
243 243 247 252 255 259 261 266 273 277 280 284 286 289 292 292 293 290 287 285 283 280 280 281 282 276 278 282 281 276 272 271 272 276 277 280 278 271 269 269 270 271 274 274 272 272 270 269 267
241 243 247 252 256 263 267 269 273 274 278 283 286 287 290 291 291 288 287 286 283 280 281 282 283 279 280 282 284 280 281 277 276 276 279 280 277 274 272 273 274 273 275 276 274 274 272 271 269
239 241 247 255 257 265 269 271 275 276 275 278 286 285 287 290 291 288 286 285 282 283 283 280 279 282 282 282 286 282 283 280 279 278 277 277 276 275 274 275 276 273 275 279 279 277 277 272 270
238 238 242 254 261 266 271 271 275 278 277 277 283 284 284 290 290 287 284 285 283 283 284 280 280 283 285 286 285 286 284 283 279 276 273 276 277 278 276 275 276 274 274 278 279 278 278 274 271
234 236 243 252 260 269 276 278 279 281 277 278 283 285 286 290 290 288 285 284 282 281 283 283 284 285 284 288 287 291 291 289 284 279 277 281 284 284 279 275 273 274 276 278 278 279 277 276 273
231 236 244 250 259 268 272 277 279 281 277 276 280 283 288 294 294 290 284 280 279 280 282 283 284 284 286 290 290 289 290 289 286 285 286 285 286 287 283 279 276 277 278 279 280 279 276 277 275
233 238 244 252 261 266 269 272 276 278 277 279 280 284 289 291 293 288 283 285 283 281 282 283 286 285 289 291 289 290 289 287 286 289 290 288 285 284 284 283 281 279 281 283 281 280 278 277 277
236 241 245 254 263 268 271 274 276 280 281 279 278 281 287 290 292 290 287 284 281 281 283 285 285 287 291 293 294 296 296 290 287 289 292 293 291 288 286 285 285 284 285 283 281 279 278 280 277
238 241 249 255 263 273 275 275 277 281 283 282 280 281 287 289 289 292 291 288 285 283 284 288 287 287 293 295 299 301 301 296 292 294 297 295 295 293 292 292 289 293 294 290 287 283 280 280 277
238 243 249 253 259 266 273 275 283 285 289 285 282 281 284 286 288 293 298 295 293 289 287 289 289 289 292 299 301 301 299 298 297 297 298 298 298 297 294 294 294 294 293 292 290 287 283 281 278
238 245 249 253 258 263 266 270 276 283 286 282 278 281 290 293 292 295 298 299 297 298 294 289 289 291 288 290 297 299 300 301 301 302 300 301 301 300 298 297 298 297 295 292 291 288 287 285 282
238 245 246 252 255 260 266 269 271 280 278 275 278 280 286 294 295 296 297 295 295 300 301 296 296 295 292 291 294 295 298 300 299 299 299 301 303 304 303 302 301 299 298 293 290 288 290 291 286
240 244 243 249 253 258 264 268 272 277 275 276 278 278 282 289 292 292 294 293 293 295 297 295 296 300 297 291 289 293 295 296 298 298 300 299 303 304 304 304 304 303 302 296 293 291 290 290 289
239 243 245 251 252 258 263 270 275 274 276 277 279 278 280 285 289 289 288 289 292 293 295 294 294 296 298 296 293 293 297 298 299 299 299 301 302 307 309 308 306 305 301 297 297 296 294 292 292
240 242 246 247 251 258 263 269 270 272 272 273 277 280 278 281 283 284 285 284 287 290 293 295 296 296 297 293 293 297 300 301 300 302 305 305 305 307 310 309 306 304 302 300 298 297 298 297 294
243 245 247 250 251 254 259 264 267 271 269 270 274 277 280 283 282 280 279 281 282 285 287 289 291 293 294 292 293 295 297 299 297 298 302 302 305 309 313 313 308 303 302 300 299 299 299 300 298
245 250 253 253 256 255 255 260 266 269 271 273 275 279 281 282 280 278 279 281 282 285 285 287 288 287 289 289 289 294 296 295 297 297 299 300 299 305 309 311 309 304 300 299 300 300 301 303 303
Height
5892 5892 5893 5894 5896 5897 5896 5895 5894 5893 5893 5892 5891 5891 5890 5890 5890 5891 5888 5885 5885 5884 5883 5882 5882 5881 5881 5880 5880 5879 5879 5879 5879 5879 5879 5879 5879 5878 5878 5879 5879 5879 5879 5879 5879 5879 5880 5880 5880
5890 5891 5893 5894 5895 5896 5895 5893 5893 5892 5891 5891 5890 5889 5888 5887 5887 5886 5885 5884 5883 5882 5881 5880 5880 5879 5879 5878 5877 5877 5877 5876 5877 5877 5877 5877 5877 5877 5877 5876 5876 5876 5877 5877 5877 5877 5877 5877 5878
5889 5889 5892 5892 5893 5894 5893 5891 5891 5890 5889 5889 5888 5887 5887 5886 5885 5884 5883 5882 5881 5880 5878 5878 5877 5877 5876 5876 5875 5875 5874 5874 5874 5874 5874 5874 5874 5874 5874 5874 5874 5874 5874 5874 5874 5875 5875 5875 5875
5887 5889 5890 5891 5891 5891 5890 5889 5889 5888 5887 5887 5886 5886 5885 5884 5883 5882 5881 5880 5879 5877 5876 5875 5875 5874 5874 5873 5873 5872 5872 5872 5872 5871 5872 5872 5872 5872 5872 5872 5872 5871 5872 5872 5872 5872 5872 5873 5873
5885 5887 5889 5889 5888 5888 5888 5887 5887 5886 5885 5885 5884 5884 5883 5882 5880 5879 5878 5878 5876 5875 5874 5873 5873 5872 5871 5870 5870 5870 5870 5869 5869 5869 5869 5869 5869 5869 5869 5869 5869 5869 5869 5869 5869 5869 5870 5870 5870
5884 5886 5887 5887 5886 5886 5885 5885 5885 5884 5884 5883 5882 5881 5880 5879 5878 5877 5876 5875 5874 5873 5872 5871 5870 5869 5869 5868 5868 5867 5867 5867 5866 5866 5866 5866 5866 5866 5865 5865 5866 5866 5866 5866 5866 5866 5866 5866 5867
5883 5883 5884 5884 5884 5884 5883 5883 5883 5882 5882 5881 5880 5879 5878 5877 5876 5875 5874 5873 5872 5871 5870 5869 5868 5867 5866 5865 5865 5864 5864 5864 5863 5863 5863 5862 5862 5862 5862 5862 5862 5862 5862 5862 5862 5862 5862 5862 5863
5879 5881 5881 5882 5882 5882 5881 5881 5880 5880 5880 5879 5878 5877 5876 5875 5873 5872 5871 5870 5869 5868 5867 5866 5865 5865 5863 5863 5862 5862 5861 5861 5860 5860 5859 5859 5859 5858 5858 5858 5858 5859 5858 5858 5858 5858 5859 5859 5859
5876 5879 5879 5879 5879 5879 5879 5878 5878 5877 5877 5876 5875 5874 5873 5872 5870 5869 5868 5868 5866 5866 5865 5864 5863 5862 5861 5860 5860 5859 5858 5858 5857 5856 5856 5855 5855 5855 5855 5855 5855 5855 5855 5854 5854 5854 5854 5855 5855
5874 5876 5876 5876 5877 5877 5876 5876 5876 5875 5874 5873 5873 5871 5870 5868 5867 5866 5865 5864 5863 5863 5862 5861 5860 5859 5858 5857 5856 5855 5854 5854 5853 5852 5852 5852 5851 5851 5851 5851 5851 5851 5850 5850 5850 5850 5850 5850 5850
5871 5872 5872 5873 5874 5874 5874 5874 5873 5873 5872 5871 5870 5869 5867 5866 5864 5863 5862 5862 5861 5860 5859 5858 5857 5856 5855 5854 5853 5852 5851 5850 5849 5849 5848 5847 5847 5847 5846 5846 5846 5846 5846 5846 5846 5845 5845 5846 5846
5868 5869 5869 5870 5871 5871 5871 5871 5871 5870 5869 5868 5867 5866 5865 5863 5861 5861 5860 5859 5858 5857 5856 5855 5854 5852 5851 5850 5849 5848 5847 5847 5846 5845 5844 5843 5843 5842 5842 5842 5842 5842 5841 5841 5841 5840 5841 5841 5841
5865 5866 5866 5867 5868 5868 5868 5868 5868 5867 5866 5865 5864 5863 5862 5860 5859 5858 5857 5856 5855 5854 5853 5852 5850 5849 5848 5847 5846 5845 5844 5843 5842 5841 5841 5840 5839 5838 5838 5838 5838 5837 5837 5837 5836 5836 5836 5836 5836
5862 5863 5863 5864 5865 5865 5866 5865 5865 5865 5863 5862 5861 5860 5859 5858 5856 5855 5854 5853 5852 5851 5850 5848 5847 5845 5844 5843 5842 5841 5840 5839 5838 5837 5836 5836 5835 5834 5834 5834 5834 5833 5833 5832 5831 5831 5831 5831 5831
5860 5860 5861 5862 5862 5862 5863 5863 5862 5861 5860 5859 5858 5857 5856 5855 5854 5853 5851 5850 5849 5848 5846 5845 5843 5842 5841 5840 5838 5838 5836 5835 5834 5834 5832 5832 5831 5830 5830 5829 5829 5829 5828 5827 5826 5825 5825 5826 5826
5857 5858 5860 5860 5860 5860 5862 5861 5859 5858 5857 5856 5855 5854 5853 5852 5851 5849 5848 5847 5846 5844 5843 5842 5840 5839 5837 5836 5835 5834 5833 5832 5831 5830 5828 5828 5827 5827 5826 5826 5825 5824 5823 5823 5822 5821 5821 5821 5821
5855 5857 5858 5858 5857 5857 5858 5858 5856 5855 5854 5853 5852 5851 5850 5849 5848 5846 5845 5843 5842 5841 5840 5838 5837 5836 5834 5833 5832 5831 5829 5828 5827 5826 5825 5824 5823 5823 5822 5821 5820 5819 5819 5818 5817 5817 5816 5816 5816
5854 5855 5855 5855 5855 5855 5855 5854 5853 5852 5851 5850 5849 5848 5847 5846 5845 5843 5841 5840 5839 5838 5837 5835 5834 5833 5831 5830 5829 5827 5826 5825 5824 5823 5822 5821 5820 5818 5817 5816 5816 5815 5814 5813 5812 5812 5811 5811 5810
5850 5851 5852 5853 5852 5852 5852 5851 5850 5849 5848 5848 5847 5846 5844 5843 5841 5839 5838 5837 5836 5835 5834 5833 5831 5830 5828 5827 5826 5825 5823 5822 5820 5819 5818 5817 5816 5814 5813 5812 5811 5810 5809 5808 5808 5807 5806 5805 5805
5847 5848 5849 5850 5849 5849 5848 5848 5847 5846 5846 5845 5844 5843 5841 5840 5838 5836 5835 5834 5833 5832 5831 5830 5829 5828 5826 5825 5823 5822 5820 5819 5818 5816 5815 5814 5812 5811 5809 5808 5807 5806 5805 5804 5803 5802 5802 5801 5800
5844 5845 5846 5847 5847 5846 5846 5846 5845 5844 5843 5842 5841 5840 5839 5837 5836 5834 5833 5832 5831 5830 5829 5828 5826 5825 5824 5822 5821 5819 5818 5816 5815 5813 5812 5810 5809 5808 5806 5805 5804 5803 5801 5800 5799 5798 5797 5796 5795
5841 5842 5843 5844 5844 5844 5844 5843 5842 5841 5840 5839 5838 5837 5836 5835 5834 5832 5831 5830 5829 5828 5827 5826 5824 5823 5821 5820 5818 5817 5815 5814 5812 5811 5809 5808 5806 5805 5804 5802 5801 5799 5798 5796 5795 5794 5793 5791 5791
5838 5839 5840 5840 5841 5841 5841 5841 5840 5838 5837 5836 5835 5834 5834 5833 5832 5830 5829 5828 5827 5826 5824 5823 5822 5820 5819 5818 5816 5815 5813 5812 5810 5809 5807 5806 5804 5802 5801 5799 5798 5796 5794 5792 5791 5790 5788 5787 5786
5834 5836 5837 5837 5838 5839 5839 5838 5838 5836 5835 5834 5833 5832 5832 5831 5830 5828 5827 5826 5825 5824 5822 5821 5819 5818 5817 5816 5814 5813 5811 5809 5808 5806 5805 5803 5801 5800 5798 5796 5794 5793 5791 5789 5787 5785 5784 5783 5782
5831 5833 5835 5836 5836 5837 5835 5834 5835 5833 5832 5831 5831 5830 5829 5828 5827 5826 5825 5824 5823 5822 5820 5819 5817 5815 5814 5813 5812 5810 5809 5807 5806 5804 5802 5801 5799 5797 5795 5793 5791 5789 5787 5785 5784 5782 5780 5779 5778
5828 5830 5832 5833 5834 5834 5832 5831 5832 5830 5829 5828 5828 5827 5826 5826 5825 5824 5823 5821 5820 5819 5818 5816 5815 5813 5812 5811 5809 5808 5806 5805 5803 5801 5799 5798 5796 5794 5792 5790 5787 5785 5783 5782 5780 5779 5777 5775 5774
5825 5826 5828 5829 5829 5830 5829 5828 5827 5826 5826 5825 5825 5824 5823 5823 5822 5821 5820 5819 5818 5816 5815 5814 5812 5811 5810 5808 5807 5805 5804 5802 5800 5798 5797 5795 5793 5791 5788 5786 5784 5781 5779 5778 5776 5775 5773 5772 5770
5822 5823 5824 5825 5825 5826 5827 5825 5824 5823 5823 5822 5822 5821 5820 5819 5818 5818 5816 5815 5814 5813 5812 5811 5810 5808 5807 5805 5804 5803 5801 5799 5797 5796 5794 5792 5790 5787 5785 5782 5780 5777 5776 5774 5773 5771 5769 5767 5765
5818 5819 5820 5821 5821 5823 5823 5824 5820 5820 5819 5819 5818 5817 5817 5816 5815 5814 5813 5812 5811 5810 5809 5808 5807 5805 5804 5802 5801 5799 5798 5796 5794 5792 5791 5789 5786 5784 5782 5779 5776 5774 5772 5770 5768 5767 5765 5763 5760
5814 5815 5816 5817 5817 5818 5819 5821 5816 5816 5815 5815 5814 5813 5813 5812 5811 5810 5810 5809 5808 5807 5806 5804 5803 5802 5800 5799 5798 5796 5795 5793 5791 5789 5787 5785 5783 5781 5778 5775 5773 5770 5768 5766 5764 5762 5760 5758 5755